SKYSAT C7

导读

SKYSAT C7(又名天空卫星9号)是美国Planet公司SkySat星座的高分辨率对地观测小卫星,于北京时间2017年10月31日,在美国范登堡空军基地由米诺陶C火箭发射升空。 该卫星运行在500公里的太阳同步轨道,重量约120千克,设计寿命6年,可获取0.5米分辨率的全色与多光谱遥感影像,服务于测绘、农业、灾害监测等高分辨率遥感应用。

基本信息
目录编号:
42991
目录名称:
SKYSAT C7
国际标识:
2017-068E
轨道中心:
EARTH
卫星名称:
SKYSAT C7
卫星全名:
--
卫星状态:
在轨 (已飞行3237 天)
发射日期:
2017-10-31 UTC
国别 :
美国 (US)
星等 :
--
轨道信息
数据来源 国际轨道数据
星历时间: 2026-09-10T17:00:34+0800
16小时前
查看轨道信息
半长轴: 6828.944km
偏心率: 0.0006285
轨道倾角: 97.465°
近地点辐角 149.988°
升交点赤经 32.326°
平近点角 210.172°
近地点: 446.515km
远地点: 455.099km
周期: 93.603分钟
每日圈数: 15.384114
详细信息
使用方式:
暂无
2D轨道图
3D轨道图
轨道高度分析图
轨道倾角分析图
轨道综合分析图
查看轨道综合分析图
与全量物体交会距离演化趋势
与全量物体交会风险概率演化趋势